Location: Ford County Road and Bridge Department
(37.7686°N, 99.9762°W)
Time: 18:21:29
(UTC+00:00)

STARLINK-61 - Pass Details

Date: 18 January 2020
Orbit: 506 x 518 km, 53.0° (Epoch: 27 February)

Event Time Altitude Azimuth Distance (km) Brightness Sun altitude
Exits shadow 11:47:58 33° 168° (SSE) 881 4.7 -24.4°
Maximum altitude 11:48:59 40° 132° (SE) 772 4.7 -24.2°
Drops below altitude 10° 11:52:41 10° 62° (ENE) 1,744 6.9 -23.5°
Sets 11:54:59 0° 55° (NE) 2,636 7.8 -23.1°
